Location: Zagreb
(45.8000°N, 16.0000°E)
Time: 19:10:43
(UTC+02:00)

Vanguard 3 - Visible Passes

Search period start: 09 August 2020 00:00
Search period end: 19 August 2020 00:00
Orbit: 509 x 3262 km, 33.3° (Epoch: 08 August)

Date Brightness Start Highest point End Pass type
(mag) Time Alt. Az. Time Alt. Az. Time Alt. Az.
09 Aug 11.1 04:14:04 10° S 04:26:21 21° SE 04:36:38 10° ESE visible
10 Aug 11.3 03:03:27 10° SSE 03:11:01 13° SE 03:18:05 10° ESE visible
10 Aug 10.7 05:09:04 10° SSW 05:24:40 32° SSE 05:36:28 10° E visible
11 Aug 10.9 03:55:06 10° S 04:09:02 25° SE 04:20:52 10° E visible
12 Aug 11.1 02:44:36 11° SSE 02:53:36 17° SE 03:03:11 10° ESE visible
12 Aug 10.6 04:50:43 10° SSW 05:07:22 36° SSE 05:20:22 10° E visible
13 Aug 10.8 03:39:04 14° S 03:51:35 28° SSE 04:04:46 10° E visible
14 Aug 11.0 02:28:57 16° SSE 02:36:04 20° SE 02:47:29 10° E visible
14 Aug 10.5 04:33:28 12° SW 04:49:57 40° SSE 05:04:03 10° E visible
15 Aug 11.2 01:18:47 11° SE 01:21:02 11° SE 01:24:57 10° ESE visible
15 Aug 10.7 03:23:19 20° S 03:34:02 32° SSE 03:48:24 10° E visible
16 Aug 10.8 02:13:07 20° SSE 02:18:28 23° SE 02:31:17 10° E visible
16 Aug 10.5 04:17:39 17° SW 04:32:26 43° SSE 04:47:35 10° E visible
17 Aug 11.1 01:02:53 13° SE 01:03:26 13° SE 01:10:50 10° ESE visible
17 Aug 10.6 03:07:24 25° S 03:16:23 35° SSE 03:31:49 10° E visible
17 Aug 10.3 05:12:27 10° WSW 05:31:09 51° S 05:46:01 10° E visible
18 Aug 10.7 01:57:09 24° SSE 02:00:47 25° SE 02:14:45 10° E visible
18 Aug 10.4 04:01:40 21° SW 04:14:49 46° SSE 04:30:57 10° E visible
